Flag for U.S.A. Weather past 2 weeks in Lexington-Fayette, Kentucky, U.S.A.

Now
73 °F

Sunny.


Feels Like: 75 °F
Forecast: 64 / 89 °F
Wind: 5 mph from East

Location: Blue Grass Airport

Current Time: Sep 5, 2015 at 9:26:17 AM

Latest Report: Sep 5, 2015 at 8:54 AM


Visibility: 10 mi

Pressure: 30.13 "Hg

Humidity: 74%

Dew point: 64 °F

Location of Lexington-FayetteLocation

Historic Weather in Lexington-Fayette — Graph

°F

Lexington-Fayette temperature yesterday

Maximum temperature yesterday: 94 °F (at 3:54 PM)
Minimum temperature yesterday: 67 °F (at 6:54 AM)
Average temperature yesterday: 80 °F

Past Weeks' High & Low Weather Summary

 TemperatureHumidityPressure
High94 °F (Sep 4, 3:54 PM)94% (Sep 1, 5:54 AM)30.18 "Hg (Sep 1, 5:54 AM)
Low52 °F (Aug 28, 6:54 AM)37% (Sep 4, 3:54 PM)29.89 "Hg (Aug 23, 7:54 PM)
Average73 °F67%30.07 "Hg
* Reported Aug 21 7:54 AM — Sep 5 7:54 AM, Lexington-Fayette, Weather by CustomWeather, © 2015

Note: Actual official high and low records may vary slightly from our data, if they occured in-between our weather recording intervals... More about our weather records

Advertising

Lexington-Fayette weather history for previous 24 hours

 ConditionsComfort  
Time TempWeatherWind HumidityBarometerVisibility
7:54 AM
Sat, Sep 5
69 °FClear.5 mph81%30.12 "Hg10 mi
6:54 AM67 °FClear.3 mph85%30.10 "Hg10 mi
5:54 AM68 °FClear.No wind82%30.08 "Hg10 mi
4:54 AM68 °FClear.No wind82%30.06 "Hg10 mi
3:54 AM67 °FClear.No wind85%30.06 "Hg10 mi
2:54 AM69 °FClear.5 mph79%30.06 "Hg10 mi
1:54 AM73 °FClear.6 mph69%30.06 "Hg10 mi
12:54 AM73 °FClear.8 mph71%30.07 "Hg10 mi
11:54 PM
Fri, Sep 4
73 °FClear.16 mph69%30.09 "Hg10 mi
10:54 PM76 °FThunderstorms. Passing clouds.15 mph67%30.10 "Hg10 mi
9:54 PM81 °FPartly cloudy.No wind58%30.06 "Hg10 mi
8:54 PM82 °FScattered clouds.5 mph55%30.03 "Hg10 mi
7:54 PM85 °FThundershowers. Sunny.5 mph50%30.02 "Hg10 mi
6:54 PM91 °FSunny.3 mph41%30.01 "Hg10 mi
5:54 PM90 °FPassing clouds.6 mph42%29.99 "Hg10 mi
4:54 PM91 °FPassing clouds.No wind38%29.99 "Hg10 mi
3:54 PM94 °FScattered clouds.7 mph37%30.00 "Hg10 mi
2:54 PM91 °FPassing clouds.5 mph39%30.02 "Hg10 mi
1:54 PM89 °FSunny.5 mph43%30.03 "Hg10 mi
12:54 PM89 °FSunny.5 mph43%30.04 "Hg10 mi
11:54 AM89 °FSunny.3 mph45%30.05 "Hg10 mi
10:54 AM86 °FSunny.3 mph53%30.04 "Hg9 mi
9:54 AM82 °FSunny.No wind65%30.03 "Hg8 mi
Weather by CustomWeather, © 2015

See weather overviewHow to use our weather pages